This is the latest recevied weather packets stored in our database for station/object KD7CIH. If no packets are shown the sender has not sent any weather packets the latest 10 day(s).
| Time | Temp. | Humidity | Pressure | Rain* | Wind** | Luminosity | Snow |
|---|---|---|---|---|---|---|---|
| 1788639214 | 26.67° C | 22% | 1015.1 hPa | 0 mm | - | - | - |
| 1788639040 | 26.67° C | 22% | 1015.1 hPa | 0 mm | - | - | - |
| 1788638615 | 26.67° C | 22% | 1014.9 hPa | 0 mm | - | - | - |
| 1788638314 | 26.67° C | 23% | 1015.1 hPa | 0 mm | - | - | - |
| 1788637832 | 26.11° C | 23% | 1015.2 hPa | 0 mm | - | - | - |
| 1788637398 | 26.67° C | 22% | 1015.2 hPa | 0 mm | - | - | - |
| 1788637094 | 26.11° C | 22% | 1015.1 hPa | 0 mm | - | - | - |
| 1788636795 | 26.11° C | 23% | 1015.2 hPa | 0 mm | - | - | - |
| 1788636496 | 25.56° C | 23% | 1015.2 hPa | 0 mm | - | - | - |
| 1788636194 | 25.56° C | 24% | 1015.3 hPa | 0 mm | - | - | - |
| 1788635892 | 25.56° C | 24% | 1015.3 hPa | 0 mm | - | - | - |
| 1788635592 | 25.56° C | 25% | 1015.4 hPa | 0 mm | - | - | - |
| 1788635294 | 25.56° C | 25% | 1015.5 hPa | 0 mm | - | - | - |
| 1788634992 | 25.56° C | 25% | 1015.4 hPa | 0 mm | - | - | - |
| 1788634693 | 25° C | 26% | 1015.5 hPa | 0 mm | - | - | - |
| 1788634394 | 25° C | 27% | 1015.7 hPa | 0 mm | - | - | - |
| 1788634222 | 24.44° C | 27% | 1015.7 hPa | 0 mm | - | - | - |
| 1788633792 | 25° C | 26% | 1015.8 hPa | 0 mm | - | - | - |
| 1788633621 | 25° C | 26% | 1015.8 hPa | 0 mm | - | - | - |
| 1788633193 | 25° C | 27% | 1015.8 hPa | 0 mm | - | - | - |
| 1788632892 | 25° C | 27% | 1016 hPa | 0 mm | - | - | - |
| 1788632590 | 24.44° C | 26% | 1016.1 hPa | 0 mm | - | - | - |
| 1788632290 | 25° C | 26% | 1015.9 hPa | 0 mm | - | - | - |
| 1788631992 | 25° C | 26% | 1016.1 hPa | 0 mm | - | - | - |
| 1788631692 | 24.44° C | 26% | 1016.1 hPa | 0 mm | - | - | - |
* Rain latest hour (hover to see other rain measurements)
** Current wind speed in m/s (hover to see current wind gust speed)